Location: Boiro
(42.6475°N, 8.8834°W)
Time: 18:03:59
(UTC+01:00)

Transit 2A Rocket - Pass Details

Date: 04 December 2021
Orbit: 584 x 918 km, 66.7° (Epoch: 19 January)

Event Time Altitude Azimuth Distance (km) Brightness Sun altitude
Rises 08:59:53 0° 206° (SSW) 3,278 8.4 0.9°
Reaches altitude 10° 09:02:13 10° 205° (SSW) 2,400 7.7 1.2°
Maximum altitude 09:07:48 82° 118° (ESE) 877 5.5 2.1°
Drops below altitude 10° 09:13:51 10° 32° (NNE) 2,586 7.7 3.0°
Sets 09:16:26 0° 32° (NNE) 3,550 8.4 3.4°
